FENGYUN 1C DEB, 35204

Orbit data source: Space-Track

FENGYUN 1C DEB, 35204 is space debris in SSO originally from a launch on Mon, 10 May 1999 UTC launched from the Taiyaun Space Center, China (TSC). Fengyun 1C debris stems from the Chinese weather satellite Fengyun-1C, which was intentionally destroyed by a Chinese anti-satellite missile in 2007. This event dramatically increased the amount of space debris, with thousands of trackable fragments posing hazards to satellites and human spaceflight. The Fengyun 1C debris cloud has become a focal point in discussions about space sustainability and the need for international regulations to prevent the creation of new debris.

Loading next visibility...
Identifier
35204, 1999-025DPL
Orbit
SSO
Country
Flag of CNCN / PRC
Related business
Manufacturer
Unknown
Mission
Spacecraft
Bus & Motor
Unknown
Mass
Unknown
Launch date (UTC)
1999-05-10 (27 years ago)
Launch vehicle
Unknown
Launch site
Taiyaun Space Center, China (TSC)
Object type
Payload
Rocket body
Debris
Shape & HBR
Unknown shape, 0.1 m
Radar Cross Section
Small (<0.1 m²)

Expand to show TLE details & history
Last TLE update: 1 day ago

TLE from 1 day ago
0 FENGYUN 1C DEB
1 35204U 99025DPL 26256.06721404  .00003970  00000-0  97715-3 0  9995
2 35204  98.9895 108.7116 0034208 219.3699 293.7511 14.52512242949080
Epoch: 2026-09-13T01:36Z
TLE epoch observation values (Epoch: 2026-09-13T01:36:47.293Z)
Latitude
26.91599°
Longitude
-82.97087°
Altitude
711.053 km
Speed
7.508 km/s
True Right ascension
19h 33m 10s
True Declination
26° 46' 35"
Sunlit
Object was in full shadow at epoch
Visualization orbit readout
Latitude
Unknown
Longitude
Unknown
Altitude
Unknown
Speed
Unknown
Apparent Right ascension
Unknown
Apparent Declination
Unknown
Sunlit
N/A
Visualization observer readout
Local Sidereal Time
01:37:25
Azimuth
Unknown
Elevation
Unknown
Doppler factor
Unknown
Orbital elements
Apogee altitude
738.847 km
Perigee altitude
690.321 km
Semi-major axis
7,092.721 km
Eccentricity
0.00342
Inclination
98.9895°
RAAN
108.7116°
Arg. of periapsis
219.3699°
True anomaly
293.39169°
Mean anomaly
293.7511°
Eccentric anomaly
293.57146°
Mean motion
3.63349 °/min
Orbital period
99.08 mins
BSTAR
0.00097715
Loading maneuver chart data...
Computing Atmospheric mass density...
Loading historical data...
Loading historical data...
Loading historical data...
Loading historical data...
Loading historical data...
Loading historical data...
Loading historical data...

Documentation

Showing up to 5 results
|